Terminal Aerodrome Forecast
Issued by NWS Springfield, MO

Home | Current Version | Previous Version | Text Only | Print | Product List | Glossary On
Versions: 1 2 3 4 5 6 7 8 9 10 11 12 13
000
FTUS43 KSGF 271700
TAFSGF
TAF
KSGF 271720Z 2718/2818 VRB05KT P6SM SCT050
      TEMPO 2720/2724 VRB15G30KT 5SM TSRA BKN040CB OVC080
     FM280100 14004KT P6SM SCT250=

USA.gov is the U.S. government's official web portal to all federal, state and local government web resources and services.